Location: Unspecified
(0.0000°N, 0.0000°E)
Time: 16:25:11
(UTC+00:00)

CAS-4B - Visible Passes

Search period start: 13 December 2019 00:00
Search period end: 23 December 2019 00:00
Orbit: 528 x 546 km, 43.0° (Epoch: 13 December)

Date Brightness Start Highest point End Pass type
(mag) Time Alt. Az. Time Alt. Az. Time Alt. Az.
13 Dec ? 04:54:36 20° NW 04:57:21 88° SW 05:01:28 10° SE visible
14 Dec ? 04:45:23 30° WNW 04:47:10 58° SW 04:51:12 10° SE visible
15 Dec ? 04:36:07 34° WSW 04:36:59 38° SW 04:40:49 10° SSE visible
16 Dec ? 04:26:48 26° SW 04:26:48 26° SW 04:30:17 10° SSE visible
17 Dec ? 04:17:26 17° SSW 04:17:26 17° SSW 04:19:31 10° S visible
18 Dec ? 04:08:00 11° SSW 04:08:00 11° SSW 04:08:21 10° SSW visible
